Wind_Speed
20 20 20 21 20 20 20 20 20 20 20 21 20 20 20 21 25 26 21 24 15 12 10 10 10 10 7 4 5 5 3 8 12 14 10 7 2 3 7 9 5 4 11 18 47
21 22 22 22 22 22 22 22 21 21 20 19 19 20 18 20 23 22 25 21 22 21 14 10 6 5 3 5 5 6 7 9 2 6 3 9 1 4 2 4 4 2 19 22 34
23 24 24 25 24 23 23 22 22 19 19 18 17 18 17 17 8 9 6 17 8 20 21 16 12 3 5 4 7 7 10 18 2 7 8 11 7 3 1 2 8 15 20 20 28
24 25 26 26 25 23 23 22 21 19 18 16 16 16 14 7 6 4 7 17 24 12 22 15 4 3 4 8 6 6 7 7 4 9 7 13 4 3 9 8 12 23 23 22 23
26 26 27 27 26 25 23 21 20 19 17 15 12 12 6 4 11 24 28 33 23 11 25 15 8 6 5 3 4 11 6 4 8 11 14 12 18 4 16 7 15 20 18 21 12
28 28 27 27 26 24 23 20 18 18 17 13 11 7 2 12 20 21 20 20 17 15 18 16 7 9 4 6 5 1 7 16 10 9 8 14 11 5 15 2 17 19 21 20 16
30 30 29 28 26 24 22 19 16 14 13 9 8 5 4 14 14 17 21 24 27 21 11 13 25 6 9 6 5 9 6 6 11 17 10 2 11 19 12 4 16 22 23 16 5
32 30 28 28 24 22 19 16 10 9 10 6 4 3 7 15 19 24 22 24 18 18 21 24 21 11 4 7 7 4 3 2 5 9 7 9 15 20 8 3 17 20 14 11 5
33 31 27 23 21 19 19 15 6 3 2 3 2 4 10 15 6 15 15 10 13 18 18 21 15 10 4 5 4 4 4 5 4 6 5 10 10 11 7 6 10 16 18 17 9
34 31 25 21 20 19 22 12 3 2 2 4 5 3 8 8 7 11 7 9 5 9 6 8 9 9 3 4 7 4 4 3 5 2 6 11 17 5 4 6 12 13 9 9 13
35 32 25 21 19 19 19 1 4 2 4 6 5 5 15 6 12 12 7 7 2 4 3 2 7 14 14 7 9 6 2 2 3 6 4 9 12 8 7 6 10 9 9 5 5
42 33 25 21 21 17 8 1 5 5 6 11 17 12 23 6 10 9 8 4 5 4 5 3 7 6 8 7 11 10 7 4 4 9 5 11 14 4 5 6 7 15 12 14 8
45 35 25 21 18 5 7 5 5 4 0 7 7 3 3 7 2 6 7 4 4 3 7 3 5 6 8 8 12 11 7 3 5 7 3 6 7 5 1 5 6 9 12 13 17
47 34 24 22 5 14 3 9 2 3 3 6 6 1 4 5 1 2 5 2 1 6 4 4 6 7 9 9 9 12 6 6 5 4 3 7 4 4 4 4 4 9 14 12 13
50 32 21 11 12 6 4 6 0 4 4 14 6 5 5 2 5 1 3 2 4 3 4 5 3 4 7 13 12 3 5 4 4 4 3 4 2 8 9 3 8 8 10 15 15
49 21 21 4 8 9 5 4 1 5 3 7 4 11 9 4 1 4 2 1 4 3 4 8 9 4 6 7 8 1 2 1 1 4 2 6 5 5 6 9 5 9 11 13 11
45 16 12 8 6 9 11 2 4 5 5 7 7 12 11 3 3 1 2 4 2 2 2 4 9 5 4 1 3 4 5 0 1 1 6 6 2 8 5 10 15 20 17 15 14
37 12 10 16 16 18 7 5 6 2 4 8 9 16 3 3 2 3 1 3 5 3 3 3 4 7 5 4 4 5 6 5 6 5 5 5 5 9 6 4 10 16 20 17 19
28 9 9 14 10 5 5 5 2 3 5 9 13 4 3 0 3 3 4 3 4 11 6 3 4 4 7 7 7 4 5 5 5 2 3 4 7 8 7 3 7 9 9 18 20
15 10 9 22 1 4 5 2 2 3 7 3 4 2 5 7 3 5 7 5 5 12 8 4 4 6 7 4 10 3 7 5 4 2 3 4 4 8 6 12 8 10 14 10 8
6 4 10 28 2 5 2 4 4 2 3 2 5 7 6 4 9 4 5 5 11 6 11 4 2 4 4 6 5 3 4 5 4 3 1 2 6 7 11 10 12 18 18 13 13
9 3 13 20 4 1 3 3 4 2 3 2 5 9 8 14 6 7 6 6 8 6 6 8 4 3 6 5 7 5 8 7 4 4 5 2 6 4 8 15 10 20 20 19 15
4 3 8 9 3 4 6 7 4 2 3 2 3 5 9 6 6 9 9 10 12 7 7 4 1 2 3 3 3 5 5 4 4 4 3 3 5 11 16 10 5 16 13 10 15
3 4 4 4 1 1 5 6 6 3 3 1 3 5 10 7 7 7 10 7 16 7 9 6 3 5 5 5 5 3 4 6 4 4 4 4 7 14 11 13 16 14 14 12 11
4 3 2 5 5 10 6 4 6 6 2 1 3 3 4 5 8 6 8 12 12 13 10 2 1 3 4 7 5 7 7 11 4 6 4 2 4 10 12 12 14 16 18 18 16
2 3 4 4 8 6 5 5 7 11 4 5 2 7 2 3 4 7 10 7 5 8 8 7 2 3 5 5 11 7 10 7 9 4 5 5 8 9 7 14 15 17 21 20 18
6 4 3 5 5 5 3 9 11 12 8 6 6 5 4 3 14 19 13 14 13 8 4 4 3 3 4 6 2 3 11 7 10 7 7 4 7 12 9 14 12 16 18 18 16
Wind_Direction
343 337 335 330 327 325 324 323 321 320 318 313 318 317 312 312 313 311 278 250 244 275 263 274 301 272 282 228 209 156 185 219 215 206 224 309 303 56 12 120 349 162 155 163 156
339 335 331 327 325 323 322 319 315 315 314 316 314 316 322 317 317 291 287 273 245 243 254 236 274 281 281 212 211 176 203 225 168 245 274 278 355 308 64 108 25 47 131 175 154
336 333 330 327 325 322 320 317 313 310 308 307 308 307 315 325 315 247 51 24 316 229 231 245 282 312 220 234 213 204 225 232 181 243 261 277 299 339 246 201 192 179 172 176 160
337 334 331 328 325 321 318 316 311 307 303 302 306 314 312 325 291 201 188 348 342 296 217 220 249 212 236 219 216 258 242 242 328 292 283 262 38 345 285 261 200 174 181 171 169
337 334 330 329 325 324 320 317 311 305 301 299 302 307 329 248 248 271 281 305 323 323 200 206 196 186 234 227 264 246 265 261 216 243 264 277 270 246 275 260 179 178 176 181 206
339 335 332 328 326 325 322 317 312 308 305 293 293 294 259 262 263 288 300 301 304 339 327 196 217 200 267 241 188 112 233 247 249 253 251 262 284 182 258 109 186 179 189 185 207
342 336 332 329 331 333 331 321 307 304 303 290 271 283 244 255 274 289 285 282 285 294 290 253 216 222 192 295 258 258 242 259 239 243 248 285 282 245 248 229 183 195 197 203 113
342 340 336 335 337 341 347 341 317 308 301 277 256 243 254 263 310 284 288 278 285 281 255 261 254 220 220 287 330 288 143 231 252 199 245 154 257 261 201 209 185 184 184 174 140
343 341 340 343 341 345 344 341 336 25 286 227 213 180 266 312 261 297 262 239 276 291 277 251 233 212 224 203 343 252 218 198 303 184 214 182 250 272 212 220 163 180 179 174 161
344 346 343 341 336 338 336 339 293 51 203 224 249 270 261 317 335 301 295 211 237 303 288 206 204 203 191 152 209 210 191 185 185 164 195 259 249 343 265 219 160 180 163 160 159
346 348 344 338 333 330 329 329 12 342 202 212 237 241 283 322 312 309 4 145 67 343 349 194 208 199 208 211 274 311 257 210 220 252 184 250 265 244 272 247 152 163 156 142 84
354 349 343 337 331 324 313 221 173 218 304 245 242 241 261 261 314 353 19 116 147 180 319 312 231 222 186 218 231 249 273 288 288 247 169 259 269 200 258 252 169 151 146 161 147
356 351 343 339 330 344 315 241 144 23 107 294 282 295 45 163 345 308 4 232 145 137 217 286 283 227 243 210 210 233 234 238 217 342 241 265 275 201 200 83 84 107 145 149 159
354 351 341 336 330 331 252 181 291 88 44 328 343 121 18 129 304 52 353 296 3 181 233 281 257 251 238 233 216 228 209 244 268 23 231 168 265 230 173 100 104 134 148 155 159
352 351 332 331 301 303 266 221 216 88 43 322 305 282 107 108 321 325 290 277 178 195 141 237 242 238 258 238 239 271 189 225 247 219 324 288 109 250 124 128 173 172 170 168 178
349 344 328 315 290 292 275 213 137 45 321 331 298 329 337 283 176 310 4 272 242 239 247 269 290 275 236 260 244 166 8 55 68 134 217 236 150 262 179 182 169 181 183 180 190
348 331 312 286 258 290 326 342 24 54 320 298 300 322 319 262 102 340 25 311 296 150 267 298 259 234 255 11 8 94 84 19 84 117 216 158 121 240 256 165 174 188 189 186 188
349 325 307 295 302 292 332 38 46 343 298 295 309 310 285 192 118 146 279 281 246 232 298 235 298 189 187 176 163 164 157 157 168 180 248 136 209 247 220 101 171 187 182 177 187
349 345 311 325 304 272 73 47 318 304 290 306 318 297 323 343 195 150 222 240 238 185 192 271 245 152 179 169 142 140 143 172 100 262 64 221 265 317 247 244 131 167 158 183 184
343 336 294 347 273 76 63 244 258 222 291 284 292 3 315 343 271 189 192 203 242 204 186 294 325 188 197 162 210 158 162 66 23 118 242 262 245 237 224 231 164 180 194 198 203
8 9 350 348 106 52 130 240 265 306 7 337 318 300 289 299 317 268 248 235 211 211 167 164 190 297 107 182 155 113 79 40 100 134 263 322 261 217 220 226 166 195 193 172 184
348 356 7 357 43 1 328 254 256 324 342 330 284 269 289 323 290 239 251 226 181 168 168 201 177 212 190 205 149 145 150 161 132 204 209 180 275 323 279 217 170 182 183 179 178
328 273 354 26 52 328 309 310 251 250 225 257 249 324 320 306 323 303 325 282 236 185 193 191 193 58 115 353 48 147 172 136 125 79 206 149 276 5 13 63 94 192 169 145 152
2 353 331 19 75 346 335 292 311 222 214 308 283 2 346 323 294 299 321 321 326 291 141 99 159 150 194 205 166 163 157 157 131 122 205 236 314 356 15 64 75 77 97 79 76
22 333 26 307 322 326 302 274 326 332 281 10 349 329 354 303 314 353 331 336 333 7 347 55 67 344 275 206 180 203 234 164 158 168 148 267 4 356 81 71 81 93 92 83 75
55 15 337 283 281 311 345 338 320 332 292 306 242 299 275 286 320 308 332 342 272 328 343 328 283 24 328 274 195 209 232 205 154 175 127 101 74 65 93 98 92 88 92 89 91
351 311 129 278 312 342 333 317 339 351 318 326 319 334 306 335 302 283 263 252 250 287 324 300 32 38 288 346 300 307 243 196 179 188 145 108 129 97 61 71 74 91 88 86 85
Height
822 818 815 811 808 805 802 800 797 794 792 790 788 786 783 781 779 776 770 758 758 758 762 761 760 760 761 760 758 758 783 780 764 760 742 731 740 729 724 727 729 724 733 732 733
820 817 812 808 805 802 799 796 794 792 790 788 785 784 780 778 775 769 751 751 753 755 760 760 759 759 762 757 756 762 771 759 743 745 745 737 739 735 733 738 744 741 739 743 735
818 814 809 805 802 799 795 793 790 788 786 784 782 780 779 777 774 754 751 751 751 753 757 759 759 761 761 754 751 749 746 742 741 740 740 737 738 737 735 748 739 740 737 735 731
815 810 806 802 798 795 792 789 787 785 783 781 780 779 778 777 777 746 746 747 749 750 755 756 758 762 759 756 746 751 737 742 740 737 737 735 737 744 734 732 725 725 723 724 723
812 807 802 798 794 790 787 784 782 780 778 778 778 777 776 776 762 747 745 745 747 748 748 751 756 758 758 750 745 745 742 737 735 735 733 732 733 745 733 724 722 723 725 724 726
808 803 798 793 789 786 783 780 777 776 775 775 775 775 775 775 748 747 745 745 748 749 749 747 749 750 752 749 747 736 736 735 732 735 733 733 732 734 721 720 724 726 724 721 723
805 800 795 789 785 781 778 775 773 771 770 771 772 774 773 764 745 745 744 742 743 748 748 743 743 746 743 744 736 733 742 736 730 730 732 728 737 726 717 716 723 725 722 723 729
802 796 790 785 781 778 775 772 768 769 769 768 770 771 765 745 743 740 738 738 738 740 742 738 741 744 746 738 736 736 735 748 728 725 724 731 741 706 712 713 716 720 726 729 734
798 792 786 782 779 776 773 771 769 767 768 769 770 770 761 742 740 734 734 735 736 735 733 732 736 739 738 748 752 742 750 745 735 721 723 726 726 710 711 711 720 723 721 723 728
795 789 783 779 777 774 771 766 766 767 767 768 768 771 751 739 736 733 731 732 735 732 726 725 729 735 743 749 754 747 744 736 738 721 721 726 721 718 711 709 717 721 724 722 719
793 786 781 777 775 772 768 767 767 768 766 762 755 751 741 737 734 731 730 732 736 733 736 724 740 736 733 735 732 730 729 731 725 715 722 725 721 720 712 712 720 724 725 725 722
790 783 778 773 770 768 767 766 762 764 763 749 747 746 735 738 735 730 730 735 739 745 738 735 732 728 727 729 731 729 733 734 723 713 723 720 719 714 709 710 714 722 726 727 729
787 780 775 769 767 765 764 762 759 759 765 748 739 735 734 736 738 735 733 731 735 738 742 738 730 723 722 725 728 727 733 732 732 720 716 722 730 720 711 716 719 722 724 726 727
783 777 773 768 766 763 760 759 758 757 770 751 741 736 734 734 737 733 732 734 730 739 737 733 723 724 723 723 721 730 718 721 725 737 751 719 756 724 720 728 728 728 725 726 728
779 774 770 767 766 763 759 757 757 758 782 748 742 732 732 739 738 735 733 731 734 732 733 731 724 726 724 718 713 722 713 720 724 735 734 730 746 728 719 734 731 730 728 726 720
775 770 766 765 764 758 758 757 757 771 778 755 743 738 735 737 739 738 736 732 731 729 729 727 719 722 714 707 709 707 716 721 726 740 757 737 740 733 723 720 726 726 725 727 729
772 765 763 762 759 755 755 758 773 776 753 759 747 737 737 734 735 737 737 739 736 738 739 724 719 711 707 715 710 715 734 755 758 761 760 732 737 727 703 703 704 713 718 721 726
768 763 761 758 755 754 755 765 774 764 762 749 745 738 737 731 733 738 739 740 729 733 737 735 730 712 705 714 720 726 735 753 754 767 743 728 744 712 695 693 695 699 703 715 719
766 762 759 756 754 754 764 781 774 769 760 754 747 740 731 729 732 736 738 734 723 723 738 728 712 697 700 703 712 720 736 728 742 739 747 739 718 697 689 690 697 703 711 715 716
769 766 759 755 751 753 771 770 765 758 756 756 755 747 738 730 730 737 733 718 719 711 714 717 718 695 696 700 704 710 713 741 758 760 755 738 728 719 701 692 697 704 705 711 711
774 773 760 754 752 764 786 773 760 752 753 757 757 749 738 741 737 728 720 707 703 700 709 717 724 705 696 706 712 712 728 729 744 755 760 761 737 699 693 687 694 695 692 701 709
786 781 761 756 773 778 774 764 756 754 753 752 751 748 744 739 732 730 715 704 688 693 709 710 717 722 709 693 692 702 719 728 754 747 752 742 737 686 681 673 678 680 681 688 701
796 786 764 761 791 789 773 763 753 754 754 750 750 744 743 741 739 722 708 690 688 692 700 698 714 727 712 704 700 708 709 718 729 737 741 745 724 693 681 674 673 674 677 690 700
796 795 783 778 782 779 781 770 759 749 751 749 750 742 745 742 731 725 719 701 696 688 683 690 709 711 729 712 708 707 705 714 721 747 742 730 724 712 702 691 689 694 690 698 703
803 807 802 802 789 787 783 770 765 758 750 751 750 749 748 745 735 733 723 716 700 701 698 695 710 702 700 696 693 696 699 709 718 721 725 720 728 719 708 705 700 699 701 707 715
814 815 809 804 794 786 779 772 770 762 755 751 753 750 747 747 746 741 741 730 726 711 716 709 709 702 701 688 689 696 693 698 708 713 713 715 725 722 722 713 711 710 707 716 723
813 810 811 803 793 789 787 781 772 769 757 750 751 751 747 745 742 732 735 731 727 727 722 720 715 715 713 699 689 709 694 692 696 695 700 715 727 728 732 728 724 720 721 728 734